Location: Zagreb
(45.8000°N, 16.0000°E)
Time: 21:35:37
(UTC+02:00)

Altair - Visible Passes

Search period start: 09 August 2022 00:00
Search period end: 19 August 2022 00:00
Orbit: 1502 x 1682 km, 47.2° (Epoch: 09 August)

Date Brightness Start Highest point End Pass type
(mag) Time Alt. Az. Time Alt. Az. Time Alt. Az.
09 Aug 7.3 01:58:25 10° WNW 02:07:43 74° SSW 02:16:50 10° ESE visible
09 Aug 8.0 04:03:40 10° WNW 04:11:20 31° SW 04:18:59 10° SSE visible
09 Aug 7.5 21:23:11 10° WSW 21:32:51 75° SSE 21:42:11 10° ENE visible
09 Aug 7.5 23:28:07 10° W 23:37:43 82° N 23:47:00 10° E visible
10 Aug 7.2 01:33:12 10° WNW 01:42:34 77° SSW 01:51:43 10° ESE visible
10 Aug 7.9 03:38:22 10° WNW 03:46:17 33° SW 03:54:09 10° SSE visible
10 Aug 7.5 20:58:00 10° SW 21:07:40 72° SSE 21:17:00 10° ENE visible
10 Aug 7.5 23:02:52 10° W 23:12:30 82° N 23:21:48 10° E visible
11 Aug 7.3 01:07:59 10° WNW 01:17:24 80° SSW 01:26:35 10° ESE visible
11 Aug 7.8 03:13:05 10° WNW 03:21:14 36° SW 03:29:17 10° SSE visible
11 Aug 7.6 20:32:51 10° SW 20:42:31 69° SSE 20:51:50 10° ENE visible
11 Aug 7.5 22:37:37 10° W 22:47:17 83° N 22:56:37 10° E visible
12 Aug 7.3 00:42:46 10° WNW 00:52:14 83° SSW 00:58:43 23° ESE visible
12 Aug 7.7 02:47:50 10° WNW 02:56:10 39° SW 02:56:23 39° SW visible
12 Aug 7.5 22:12:22 10° W 22:22:04 83° N 22:31:26 10° E visible
13 Aug 7.3 00:17:33 10° WNW 00:27:04 85° SSW 00:32:12 31° ESE visible
13 Aug 7.7 02:22:34 10° WNW 02:30:04 41° SW 02:30:04 41° SW visible
13 Aug 7.5 21:47:06 10° W 21:56:51 84° N 22:06:14 10° E visible
13 Aug 7.3 23:52:19 10° WNW 00:01:53 87° SSW 00:06:49 33° ESE visible
14 Aug 7.7 01:57:19 10° WNW 02:04:44 43° WSW 02:04:44 43° WSW visible
14 Aug 7.6 21:21:51 10° W 21:31:39 86° N 21:41:04 10° E visible
14 Aug 7.3 23:27:05 10° WNW 23:36:41 90° SSW 23:41:51 31° ESE visible
15 Aug 7.7 01:32:05 10° WNW 01:39:46 46° WSW 01:39:46 46° WSW visible
15 Aug 7.6 20:56:36 10° WSW 21:06:26 87° N 21:15:53 10° E visible
15 Aug 7.4 23:01:51 10° WNW 23:11:30 89° NNE 23:17:06 28° ESE visible
16 Aug 7.6 01:06:51 10° WNW 01:15:02 50° SW 01:15:02 50° SW visible
16 Aug 7.6 20:31:21 10° WSW 20:41:12 89° NNW 20:50:41 10° ENE visible
16 Aug 7.4 22:36:36 10° W 22:46:18 87° NNE 22:52:29 25° E visible
17 Aug 7.5 00:41:37 10° WNW 00:50:26 55° SW 00:50:26 55° SW visible
17 Aug 9.2 02:48:08 10° W 02:48:23 11° W 02:48:23 11° W visible
17 Aug 7.5 22:11:21 10° W 22:21:05 86° N 22:27:58 21° E visible
18 Aug 7.4 00:16:23 10° WNW 00:25:36 58° SSW 00:25:56 58° SSW visible
18 Aug 9.1 02:22:35 10° W 02:23:53 13° W 02:23:53 13° W visible
18 Aug 7.5 21:46:07 10° W 21:55:53 84° N 22:03:32 17° E visible
